Tracking 19562 objects as of 23-Mar-2019
HD Live streaming from Space Station
objects crossing your sky now

GOES 2

Track GOES 2 now!
GOES 2 is classified as:


NORAD ID: 10061
Int'l Code: 1977-048A
Perigee: 35,962.7 km
Apogee: 36,116.8 km
Inclination: 12.3 °
Period: 1,448.7 minutes
Semi major axis: 42410 km
RCS: 2.5118 m2 (large)
Launch date: June 16, 1977
Source: United States (US)
Launch site: AIR FORCE EASTERN TEST RANGE (AFETR)
aabbcc
Your satellite tracking list
Your tracking list is empty




NASA's NSSDC Master Catalog

Two Line Element Set (TLE):
1 10061U 77048A   19081.30705963 -.00000084  00000-0  00000+0 0  9998
2 10061  12.2651 320.2529 0018175 347.9300 170.0998  0.99400641 97236
Source of the keplerian elements: AFSPC